Location: El Gha�l�ss�ya Oumm Amo�ra
(16.2824°N, 9.3263°W)
Time: 05:41:27
(UTC+00:00)

Daily predictions for brighter satellites

Satellite Brightness Start Highest point End
(mag) Time Altitude Azimuth Time Altitude Azimuth Time Altitude Azimuth
NOSS 3-1 (A) 4.4 04:07:18 62° S 04:07:18 62° S 04:14:30 10° SSE
CZ-2C R/B 4.4 04:13:21 22° SE 04:13:21 22° SE 04:15:32 10° SSE
CZ-3B R/B 2.5 04:27:49 60° NNE 04:27:49 60° NNE 04:32:17 10° ENE
Atlas Centaur 2 3.8 04:34:05 17° E 04:34:05 17° E 04:35:05 10° E
Ariane H10-3 4.3 04:31:06 25° SSW 04:35:20 41° SSE 05:43:46 10° E
SWIFT 3.9 04:38:58 34° E 04:38:58 34° E 04:41:28 10° E
Lacrosse 4 Rocket 3.9 04:45:05 14° S 04:45:05 14° S 04:45:41 10° S
ASC 2 Rocket 4.4 04:44:12 56° WNW 04:46:19 84° NNE 04:52:49 10° ESE
ATLAS CENTAUR R/B 2.9 04:50:10 33° NNE 04:50:10 33° NNE 04:52:53 10° NNE
Milstar 3 Cent rocket 3.3 04:48:13 45° W 04:51:26 66° SSW 04:57:45 10° SE
Cosmos 1980 Rocket 3.6 04:47:47 10° N 04:52:53 35° ENE 04:57:59 10° SE
FALCON 9 R/B 3.2 04:57:20 31° SW 05:00:06 73° SE 05:16:48 10° ENE
PSLV R/B 4.0 04:56:40 10° SSE 05:00:44 74° ENE 05:01:14 64° NNE
Cosmos 2100 Rocket 4.2 04:59:02 10° S 05:05:14 71° E 05:11:22 10° N
Cosmos 2221 2.5 05:05:57 64° SW 05:05:57 64° SW 05:09:52 10° S
GOES 2 Rocket 4.3 05:04:06 44° W 05:06:14 64° SSW 05:14:37 10° SE
Milstar 3 3.1 05:02:54 38° WNW 05:06:45 78° SSW 05:13:33 10° ESE
Cosmos 2151 3.4 05:03:43 10° S 05:07:57 63° E 05:12:11 10° NNE
Cosmos 1892 2.5 05:09:46 10° S 05:13:34 87° W 05:16:01 21° N
Cosmos 1766 Rocket 3.6 05:13:20 10° S 05:17:38 79° E 05:21:56 10° N
Cosmos 2369 3.9 05:18:18 35° NW 05:20:10 48° WSW 05:25:39 10° S
Cosmos 1802 Rocket 4.3 05:16:10 10° S 05:22:33 75° E 05:28:57 10° N
Okean 3 Rocket 3.5 05:18:14 10° SSW 05:22:42 62° W 05:27:10 10° N
Cosmos 1447 Rocket 4.4 05:17:27 10° N 05:23:48 85° W 05:30:05 10° S
Cosmos 372 Rocket 3.8 05:22:04 10° SSW 05:27:14 75° WNW 05:32:23 10° N
CZ-4B R/B 4.4 05:23:43 10° N 05:27:53 40° WNW 05:31:55 10° SW
Cosmos 1825 3.5 05:26:53 10° SSE 05:30:25 41° E 05:33:58 10° NNE
Cosmos 1697 Rocket 3.1 05:29:01 28° WNW 05:31:16 40° WSW 05:36:27 10° S
GPS 2-12 Rocket1 2.9 05:29:34 34° W 05:31:29 83° SSW 05:35:59 10° ESE
GPS 2-05 Rocket1 2.5 05:32:39 37° SSW 05:33:25 59° SE 05:35:59 10° ENE
CZ-3B R/B 3.1 05:32:03 22° NNW 05:34:04 36° NNE 05:43:14 10° E
Meteor 1-31 Rocket 4.4 05:36:21 18° WSW 05:36:21 18° WSW 05:37:44 10° SW
Cosmos 2360 4.2 05:30:26 14° NNW 05:35:20 64° WSW 05:40:58 10° S
COSMOS 2487 2.4 05:32:27 10° SSW 05:35:48 51° WNW 05:39:09 10° N
Cosmos 2173 Rocket 4.0 05:31:17 10° SSW 05:37:30 61° W 05:43:39 10° N
Cosmos 2061 Rocket 4.0 05:32:10 10° S 05:38:28 90° E 05:44:43 10° N
Cosmos 2278 4.0 05:34:53 18° NW 05:38:51 46° WSW 05:44:14 10° S
ISS -2.7 05:38:32 27° WSW 05:38:55 28° SW 05:41:51 10° S
Helios 1A Rocket 4.1 05:35:14 10° NNE 05:39:06 44° E 05:42:57 10° S
Fermi 4.5 05:36:14 13° SW 05:39:37 50° SSE 05:43:33 10° E
Cosmos 158 Rocket 4.3 05:35:04 10° N 05:39:52 61° ENE 05:44:40 10° SSE
Cosmos 1484 Rocket 2.8 05:36:20 10° N 05:40:17 63° WNW 05:44:13 10° SSW
ASTEX 1 3.6 05:37:41 10° S 05:42:24 47° W 05:47:09 10° NNW
Cosmos 2298 Rocket 4.4 05:39:26 10° SW 05:44:23 40° WNW 05:49:19 10° N
SEDSat Delta rocket 3.0 05:41:22 12° SW 05:45:08 73° SSE 05:49:29 10° ENE
Cosmos 2112 Rocket 4.0 05:40:07 10° NNW 05:45:23 64° WSW 05:50:39 10° S
ALOS 2.3 05:46:32 10° NNE 05:51:12 86° E 05:55:51 10° S
Cosmos 1869 3.9 05:48:12 11° NNW 05:51:38 35° W 05:55:14 10° SSW
Cosmos 1680 Rocket 3.9 05:46:41 10° NNW 05:51:41 43° W 05:56:41 10° S
PAYLOAD B 4.1 05:49:46 10° N 05:55:14 78° WNW 06:00:44 10° SSW
Cosmos 1864 Rocket 4.4 05:49:24 10° S 05:55:31 87° W 06:01:39 10° N
Cosmos 1356 Rocket 4.5 06:00:28 10° NW 06:04:00 26° W 06:07:29 10° SSW
CZ-4B DEB 4.4 06:01:53 10° N 06:07:08 48° WNW 06:12:24 10° SSW
KM-V1 3.0 06:05:32 13° NW 06:07:27 60° NNE 06:09:25 10° ESE
GPS 2-18 Rocket1 3.6 06:05:01 12° WNW 06:08:34 51° N 06:12:30 10° E
Cosmos 1408 3.8 06:11:12 10° SW 06:14:05 22° W 06:16:58 10° NNW
FUSE 4.4 06:10:11 10° WNW 06:15:28 56° NNE 06:20:45 10° E
Okean O Rocket 1.7 06:12:00 10° N 06:16:13 53° WNW 06:20:28 10° SSW
SKYMED 2 3.5 06:12:23 10° S 06:16:43 83° W 06:21:03 10° NNW
SWIFT 2.7 06:15:02 10° W 06:19:13 53° N 06:23:23 10° ENE
Atlas Centaur 2 2.2 06:17:11 10° W 06:20:21 31° SSW 06:23:44 10° SE
USA 267 3.3 06:14:02 10° NNE 06:20:33 75° NW 06:27:04 10° SW
